Year,Month,Day,Hour,Minute,Value (Times are PST for temperature in C)
2019,04,01,00,00,8.20
2019,04,01,00,01,8.20
2019,04,01,00,02,8.20
2019,04,01,00,03,8.20
2019,04,01,00,04,8.20
2019,04,01,00,05,8.20
2019,04,01,00,06,8.20
2019,04,01,00,07,8.20
2019,04,01,00,08,8.20
2019,04,01,00,09,8.20
2019,04,01,00,10,8.20
2019,04,01,00,11,8.10
2019,04,01,00,12,8.10
2019,04,01,00,13,8.10
2019,04,01,00,14,8.10
2019,04,01,00,15,8.10
2019,04,01,00,16,8.10
2019,04,01,00,17,8.10
2019,04,01,00,18,8.10
2019,04,01,00,19,8.10
2019,04,01,00,20,8.10
2019,04,01,00,21,8.10
2019,04,01,00,22,8.10
2019,04,01,00,23,8.20
2019,04,01,00,24,8.20
2019,04,01,00,25,8.30
2019,04,01,00,26,8.40
2019,04,01,00,27,8.50
2019,04,01,00,28,8.70
2019,04,01,00,29,8.70
2019,04,01,00,30,8.80
2019,04,01,00,31,8.80
2019,04,01,00,32,8.90
2019,04,01,00,33,8.90
2019,04,01,00,34,9.00
2019,04,01,00,35,9.00
2019,04,01,00,36,9.10
2019,04,01,00,37,9.10
2019,04,01,00,38,9.20
2019,04,01,00,39,9.20
2019,04,01,00,40,9.20
2019,04,01,00,41,9.20
2019,04,01,00,42,9.20
2019,04,01,00,43,9.20
2019,04,01,00,44,9.20
2019,04,01,00,45,9.20
2019,04,01,00,46,9.20
2019,04,01,00,47,9.20
2019,04,01,00,48,9.20
2019,04,01,00,49,9.20
2019,04,01,00,50,9.20
2019,04,01,00,51,9.20
2019,04,01,00,52,9.20
2019,04,01,00,53,9.20
2019,04,01,00,54,9.20
2019,04,01,00,55,9.20
2019,04,01,00,56,9.20
2019,04,01,00,57,9.20
2019,04,01,00,58,9.20
2019,04,01,00,59,9.20
2019,04,01,01,00,9.10
2019,04,01,01,01,9.10
2019,04,01,01,02,9.00
2019,04,01,01,03,9.00
2019,04,01,01,04,8.90
2019,04,01,01,05,8.80
2019,04,01,01,06,8.70
2019,04,01,01,07,8.70
2019,04,01,01,08,8.60
2019,04,01,01,09,8.60
2019,04,01,01,10,8.50
2019,04,01,01,11,8.40
2019,04,01,01,12,8.40
2019,04,01,01,13,8.30
2019,04,01,01,14,8.30
2019,04,01,01,15,8.30
2019,04,01,01,16,8.20
2019,04,01,01,17,8.20
2019,04,01,01,18,8.20
2019,04,01,01,19,8.20
2019,04,01,01,20,8.20
2019,04,01,01,21,8.20
2019,04,01,01,22,8.20
2019,04,01,01,23,8.10
2019,04,01,01,24,8.10
2019,04,01,01,25,8.10
2019,04,01,01,26,8.00
2019,04,01,01,27,8.00
2019,04,01,01,28,8.00
2019,04,01,01,29,7.90
2019,04,01,01,30,7.90
2019,04,01,01,31,7.90
2019,04,01,01,32,7.90
2019,04,01,01,33,7.90
2019,04,01,01,34,7.80
2019,04,01,01,35,7.80
2019,04,01,01,36,7.80
2019,04,01,01,37,7.80
2019,04,01,01,38,7.80
2019,04,01,01,39,7.80
2019,04,01,01,40,7.80
2019,04,01,01,41,7.80
2019,04,01,01,42,7.80
2019,04,01,01,43,7.80
2019,04,01,01,44,7.80
2019,04,01,01,45,7.70
2019,04,01,01,46,7.70
2019,04,01,01,47,7.70
2019,04,01,01,48,7.70
2019,04,01,01,49,7.60
2019,04,01,01,50,7.60
2019,04,01,01,51,7.60
2019,04,01,01,52,7.50
2019,04,01,01,53,7.50
2019,04,01,01,54,7.50
2019,04,01,01,55,7.50
2019,04,01,01,56,7.40
2019,04,01,01,57,7.40
2019,04,01,01,58,7.40
2019,04,01,01,59,7.40
2019,04,01,02,00,7.40
2019,04,01,02,01,7.40
2019,04,01,02,02,7.30
2019,04,01,02,03,7.30
2019,04,01,02,04,7.30
2019,04,01,02,05,7.30
2019,04,01,02,06,7.30
2019,04,01,02,07,7.30
2019,04,01,02,08,7.30
2019,04,01,02,09,7.30
2019,04,01,02,10,7.30
2019,04,01,02,11,7.30
2019,04,01,02,12,7.20
2019,04,01,02,13,7.20
2019,04,01,02,14,7.20
2019,04,01,02,15,7.20
2019,04,01,02,16,7.20
2019,04,01,02,17,7.20
2019,04,01,02,18,7.20
2019,04,01,02,19,7.20
2019,04,01,02,20,7.20
2019,04,01,02,21,7.20
2019,04,01,02,22,7.20
2019,04,01,02,23,7.20
2019,04,01,02,24,7.20
2019,04,01,02,25,7.20
2019,04,01,02,26,7.20
2019,04,01,02,27,7.30
2019,04,01,02,28,7.30
2019,04,01,02,29,7.30
2019,04,01,02,30,7.30
2019,04,01,02,31,7.30
2019,04,01,02,32,7.30
2019,04,01,02,33,7.30
2019,04,01,02,34,7.20
2019,04,01,02,35,7.20
2019,04,01,02,36,7.20
2019,04,01,02,37,7.20
2019,04,01,02,38,7.20
2019,04,01,02,39,7.20
2019,04,01,02,40,7.20
2019,04,01,02,41,7.20
2019,04,01,02,42,7.20
2019,04,01,02,43,7.20
2019,04,01,02,44,7.10
2019,04,01,02,45,7.10
2019,04,01,02,46,7.10
2019,04,01,02,47,7.10
2019,04,01,02,48,7.10
2019,04,01,02,49,7.00
2019,04,01,02,50,7.00
2019,04,01,02,51,7.00
2019,04,01,02,52,6.90
2019,04,01,02,53,6.90
2019,04,01,02,54,6.90
2019,04,01,02,55,6.90
2019,04,01,02,56,6.90
2019,04,01,02,57,6.80
2019,04,01,02,58,6.80
2019,04,01,02,59,6.80
2019,04,01,03,00,6.80
2019,04,01,03,01,6.80
2019,04,01,03,02,6.80
2019,04,01,03,03,6.80
2019,04,01,03,04,6.80
2019,04,01,03,05,6.80
2019,04,01,03,06,6.80
2019,04,01,03,07,6.80
2019,04,01,03,08,6.80
2019,04,01,03,09,6.80
2019,04,01,03,10,6.80
2019,04,01,03,11,6.90
2019,04,01,03,12,6.90
2019,04,01,03,13,7.00
2019,04,01,03,14,7.00
2019,04,01,03,15,7.00
2019,04,01,03,16,7.00
2019,04,01,03,17,7.00
2019,04,01,03,18,7.10
2019,04,01,03,19,7.10
2019,04,01,03,20,7.10
2019,04,01,03,21,7.10
2019,04,01,03,22,7.10
2019,04,01,03,23,7.10
2019,04,01,03,24,7.20
2019,04,01,03,25,7.30
2019,04,01,03,26,7.30
2019,04,01,03,27,7.30
2019,04,01,03,28,7.30
2019,04,01,03,29,7.30
2019,04,01,03,30,7.30
2019,04,01,03,31,7.30
2019,04,01,03,32,7.30
2019,04,01,03,33,7.30
2019,04,01,03,34,7.30
2019,04,01,03,35,7.30
2019,04,01,03,36,7.30
2019,04,01,03,37,7.30
2019,04,01,03,38,7.30
2019,04,01,03,39,7.30
2019,04,01,03,40,7.30
2019,04,01,03,41,7.30
2019,04,01,03,42,7.30
2019,04,01,03,43,7.20
2019,04,01,03,44,7.20
2019,04,01,03,45,7.20
2019,04,01,03,46,7.10
2019,04,01,03,47,7.10
2019,04,01,03,48,7.10
2019,04,01,03,49,7.10
2019,04,01,03,50,7.10
2019,04,01,03,51,7.10
2019,04,01,03,52,7.10
2019,04,01,03,53,7.10
2019,04,01,03,54,7.20
2019,04,01,03,55,7.20
2019,04,01,03,56,7.20
2019,04,01,03,57,7.30
2019,04,01,03,58,7.30
2019,04,01,03,59,7.30
2019,04,01,04,00,7.30
2019,04,01,04,01,7.30
2019,04,01,04,02,7.30
2019,04,01,04,03,7.30
2019,04,01,04,04,7.30
2019,04,01,04,05,7.30
2019,04,01,04,06,7.40
2019,04,01,04,07,7.30
2019,04,01,04,08,7.30
2019,04,01,04,09,7.30
2019,04,01,04,10,7.30
2019,04,01,04,11,7.30
2019,04,01,04,12,7.30
2019,04,01,04,13,7.30
2019,04,01,04,14,7.30
2019,04,01,04,15,7.30
2019,04,01,04,16,7.30
2019,04,01,04,17,7.40
2019,04,01,04,18,7.40
2019,04,01,04,19,7.40
2019,04,01,04,20,7.40
2019,04,01,04,21,7.30
2019,04,01,04,22,7.30
2019,04,01,04,23,7.30
2019,04,01,04,24,7.30
2019,04,01,04,25,7.30
2019,04,01,04,26,7.30
2019,04,01,04,27,7.40
2019,04,01,04,28,7.40
2019,04,01,04,29,7.40
2019,04,01,04,30,7.50
2019,04,01,04,31,7.50
2019,04,01,04,32,7.60
2019,04,01,04,33,7.70
2019,04,01,04,34,7.70
2019,04,01,04,35,7.80
2019,04,01,04,36,7.80
2019,04,01,04,37,7.90
2019,04,01,04,38,7.90
2019,04,01,04,39,8.00
2019,04,01,04,40,8.00
2019,04,01,04,41,8.00
2019,04,01,04,42,8.00
2019,04,01,04,43,7.90
2019,04,01,04,44,7.90
2019,04,01,04,45,7.90
2019,04,01,04,46,7.90
2019,04,01,04,47,7.80
2019,04,01,04,48,7.80
2019,04,01,04,49,7.80
2019,04,01,04,50,7.80
2019,04,01,04,51,7.80
2019,04,01,04,52,7.80
2019,04,01,04,53,7.80
2019,04,01,04,54,7.80
2019,04,01,04,55,7.80
2019,04,01,04,56,7.80
2019,04,01,04,57,7.80
2019,04,01,04,58,7.80
2019,04,01,04,59,7.80
2019,04,01,05,00,7.90
2019,04,01,05,01,7.90
2019,04,01,05,02,7.90
2019,04,01,05,03,7.90
2019,04,01,05,04,7.90
2019,04,01,05,05,7.90
2019,04,01,05,06,7.90
2019,04,01,05,07,7.90
2019,04,01,05,08,7.90
2019,04,01,05,09,7.90
2019,04,01,05,10,7.80
2019,04,01,05,11,7.80
2019,04,01,05,12,7.80
2019,04,01,05,13,7.90
2019,04,01,05,14,7.90
2019,04,01,05,15,7.90
2019,04,01,05,16,7.90
2019,04,01,05,17,7.90
2019,04,01,05,18,7.90
2019,04,01,05,19,7.90
2019,04,01,05,20,8.00
2019,04,01,05,21,8.00
2019,04,01,05,22,8.00
2019,04,01,05,23,8.00
2019,04,01,05,24,8.00
2019,04,01,05,25,8.00
2019,04,01,05,26,8.00
2019,04,01,05,27,8.00
2019,04,01,05,28,8.00
2019,04,01,05,29,8.00
2019,04,01,05,30,8.00
2019,04,01,05,31,8.00
2019,04,01,05,32,8.00
2019,04,01,05,33,8.00
2019,04,01,05,34,8.10
2019,04,01,05,35,8.20
2019,04,01,05,36,8.20
2019,04,01,05,37,8.20
2019,04,01,05,38,8.20
2019,04,01,05,39,8.20
2019,04,01,05,40,8.30
2019,04,01,05,41,8.30
2019,04,01,05,42,8.40
2019,04,01,05,43,8.40
2019,04,01,05,44,8.40
2019,04,01,05,45,8.40
2019,04,01,05,46,8.50
2019,04,01,05,47,8.50
2019,04,01,05,48,8.50
2019,04,01,05,49,8.50
2019,04,01,05,50,8.50
2019,04,01,05,51,8.60
2019,04,01,05,52,8.60
2019,04,01,05,53,8.60
2019,04,01,05,54,8.70
2019,04,01,05,55,8.70
2019,04,01,05,56,8.70
2019,04,01,05,57,8.70
2019,04,01,05,58,8.80
2019,04,01,05,59,8.80
2019,04,01,06,00,8.90
2019,04,01,06,01,8.90
2019,04,01,06,02,9.00
2019,04,01,06,03,9.00
2019,04,01,06,04,9.10
2019,04,01,06,05,9.10
2019,04,01,06,06,9.10
2019,04,01,06,07,9.10
2019,04,01,06,08,9.10
2019,04,01,06,09,9.10
2019,04,01,06,10,9.20
2019,04,01,06,11,9.20
2019,04,01,06,12,9.20
2019,04,01,06,13,9.20
2019,04,01,06,14,9.20
2019,04,01,06,15,9.20
2019,04,01,06,16,9.20
2019,04,01,06,17,9.20
2019,04,01,06,18,9.20
2019,04,01,06,19,9.20
2019,04,01,06,20,9.20
2019,04,01,06,21,9.20
2019,04,01,06,22,9.20
2019,04,01,06,23,9.20
2019,04,01,06,24,9.20
2019,04,01,06,25,9.20
2019,04,01,06,26,9.30
2019,04,01,06,27,9.30
2019,04,01,06,28,9.30
2019,04,01,06,29,9.40
2019,04,01,06,30,9.40
2019,04,01,06,31,9.40
2019,04,01,06,32,9.40
2019,04,01,06,33,9.50
2019,04,01,06,34,9.50
2019,04,01,06,35,9.50
2019,04,01,06,36,9.50
2019,04,01,06,37,9.50
2019,04,01,06,38,9.50
2019,04,01,06,39,9.50
2019,04,01,06,40,9.50
2019,04,01,06,41,9.50
2019,04,01,06,42,9.50
2019,04,01,06,43,9.50
2019,04,01,06,44,9.50
2019,04,01,06,45,9.50
2019,04,01,06,46,9.50
2019,04,01,06,47,9.50
2019,04,01,06,48,9.50
2019,04,01,06,49,9.50
2019,04,01,06,50,9.50
2019,04,01,06,51,9.50
2019,04,01,06,52,9.50
2019,04,01,06,53,9.50
2019,04,01,06,54,9.50
2019,04,01,06,55,9.50
2019,04,01,06,56,9.50
2019,04,01,06,57,9.50
2019,04,01,06,58,9.50
2019,04,01,06,59,9.50
2019,04,01,07,00,9.50
2019,04,01,07,01,9.50
2019,04,01,07,02,9.50
2019,04,01,07,03,9.50
2019,04,01,07,04,9.50
2019,04,01,07,05,9.50
2019,04,01,07,06,9.50
2019,04,01,07,07,9.50
2019,04,01,07,08,9.50
2019,04,01,07,09,9.50
2019,04,01,07,10,9.50
2019,04,01,07,11,9.50
2019,04,01,07,12,9.50
2019,04,01,07,13,9.40
2019,04,01,07,14,9.40
2019,04,01,07,15,9.30
2019,04,01,07,16,9.30
2019,04,01,07,17,9.20
2019,04,01,07,18,9.20
2019,04,01,07,19,9.20
2019,04,01,07,20,9.20
2019,04,01,07,21,9.20
2019,04,01,07,22,9.10
2019,04,01,07,23,9.10
2019,04,01,07,24,9.00
2019,04,01,07,25,9.00
2019,04,01,07,26,9.00
2019,04,01,07,27,9.00
2019,04,01,07,28,8.90
2019,04,01,07,29,8.90
2019,04,01,07,30,8.90
2019,04,01,07,31,8.90
2019,04,01,07,32,8.90
2019,04,01,07,33,8.90
2019,04,01,07,34,8.90
2019,04,01,07,35,8.90
2019,04,01,07,36,8.90
2019,04,01,07,37,8.90
2019,04,01,07,38,8.90
2019,04,01,07,39,8.90
2019,04,01,07,40,8.80
2019,04,01,07,41,8.80
2019,04,01,07,42,8.80
2019,04,01,07,43,8.80
2019,04,01,07,44,8.80
2019,04,01,07,45,8.80
2019,04,01,07,46,8.80
2019,04,01,07,47,8.80
2019,04,01,07,48,8.90
2019,04,01,07,49,8.90
2019,04,01,07,50,8.90
2019,04,01,07,51,9.00
2019,04,01,07,52,9.00
2019,04,01,07,53,9.00
2019,04,01,07,54,9.00
2019,04,01,07,55,9.00
2019,04,01,07,56,9.10
2019,04,01,07,57,9.10
2019,04,01,07,58,9.10
2019,04,01,07,59,9.10
2019,04,01,08,00,9.10
2019,04,01,08,01,9.10
2019,04,01,08,02,9.10
2019,04,01,08,03,9.10
2019,04,01,08,04,9.10
2019,04,01,08,05,9.10
2019,04,01,08,06,9.10
2019,04,01,08,07,9.10
2019,04,01,08,08,9.10
2019,04,01,08,09,9.10
2019,04,01,08,10,9.10
2019,04,01,08,11,9.10
2019,04,01,08,12,9.10
2019,04,01,08,13,9.10
2019,04,01,08,14,9.10
2019,04,01,08,15,9.10
2019,04,01,08,16,9.10
2019,04,01,08,17,9.10
2019,04,01,08,18,9.10
2019,04,01,08,19,9.20
2019,04,01,08,20,9.20
2019,04,01,08,21,9.20
2019,04,01,08,22,9.20
2019,04,01,08,23,9.20
2019,04,01,08,24,9.20
2019,04,01,08,25,9.30
2019,04,01,08,26,9.30
2019,04,01,08,27,9.40
2019,04,01,08,28,9.40
2019,04,01,08,29,9.50
2019,04,01,08,30,9.60
2019,04,01,08,31,9.70
2019,04,01,08,32,9.70
2019,04,01,08,33,9.80
2019,04,01,08,34,9.80
2019,04,01,08,35,9.90
2019,04,01,08,36,9.90
2019,04,01,08,37,9.90
2019,04,01,08,38,10.00
2019,04,01,08,39,10.10
2019,04,01,08,40,10.10
2019,04,01,08,41,10.10
2019,04,01,08,42,10.10
2019,04,01,08,43,10.10
2019,04,01,08,44,10.20
2019,04,01,08,45,10.20
2019,04,01,08,46,10.20
2019,04,01,08,47,10.30
2019,04,01,08,48,10.30
2019,04,01,08,49,10.40
2019,04,01,08,50,10.40
2019,04,01,08,51,10.40
2019,04,01,08,52,10.40
2019,04,01,08,53,10.50
2019,04,01,08,54,10.60
2019,04,01,08,55,10.60
2019,04,01,08,56,10.60
2019,04,01,08,57,10.60
2019,04,01,08,58,10.70
2019,04,01,08,59,10.70
2019,04,01,09,00,10.80
2019,04,01,09,01,10.80
2019,04,01,09,02,10.90
2019,04,01,09,03,10.90
2019,04,01,09,04,10.90
2019,04,01,09,05,10.90
2019,04,01,09,06,11.00
2019,04,01,09,07,11.10
2019,04,01,09,08,11.10
2019,04,01,09,09,11.10
2019,04,01,09,10,11.10
2019,04,01,09,11,11.10
2019,04,01,09,12,11.10
2019,04,01,09,13,11.10
2019,04,01,09,14,11.10
2019,04,01,09,15,11.10
2019,04,01,09,16,11.20
2019,04,01,09,17,11.20
2019,04,01,09,18,11.20
2019,04,01,09,19,11.20
2019,04,01,09,20,11.30
2019,04,01,09,21,11.40
2019,04,01,09,22,11.40
2019,04,01,09,23,11.40
2019,04,01,09,24,11.50
2019,04,01,09,25,11.60
2019,04,01,09,26,11.60
2019,04,01,09,27,11.60
2019,04,01,09,28,11.60
2019,04,01,09,29,11.60
2019,04,01,09,30,11.60
2019,04,01,09,31,11.70
2019,04,01,09,32,11.70
2019,04,01,09,33,11.70
2019,04,01,09,34,11.70
2019,04,01,09,35,11.70
2019,04,01,09,36,11.70
2019,04,01,09,37,11.70
2019,04,01,09,38,11.70
2019,04,01,09,39,11.70
2019,04,01,09,40,11.70
2019,04,01,09,41,11.70
2019,04,01,09,42,11.80
2019,04,01,09,43,11.80
2019,04,01,09,44,11.80
2019,04,01,09,45,11.80
2019,04,01,09,46,11.80
2019,04,01,09,47,11.80
2019,04,01,09,48,11.80
2019,04,01,09,49,11.80
2019,04,01,09,50,11.80
2019,04,01,09,51,11.80
2019,04,01,09,52,11.80
2019,04,01,09,53,11.80
2019,04,01,09,54,11.80
2019,04,01,09,55,11.70
2019,04,01,09,56,11.70
2019,04,01,09,57,11.60
2019,04,01,09,58,11.70
2019,04,01,09,59,11.70
2019,04,01,10,00,11.70
2019,04,01,10,01,11.80
2019,04,01,10,02,11.80
2019,04,01,10,03,11.80
2019,04,01,10,04,11.80
2019,04,01,10,05,11.80
2019,04,01,10,06,11.80
2019,04,01,10,07,11.80
2019,04,01,10,08,11.90
2019,04,01,10,09,11.90
2019,04,01,10,10,12.00
2019,04,01,10,11,12.00
2019,04,01,10,12,12.00
2019,04,01,10,13,12.00
2019,04,01,10,14,12.00
2019,04,01,10,15,12.00
2019,04,01,10,16,12.00
2019,04,01,10,17,12.00
2019,04,01,10,18,12.00
2019,04,01,10,19,12.00
2019,04,01,10,20,12.00
2019,04,01,10,21,12.00
2019,04,01,10,22,12.00
2019,04,01,10,23,12.00
2019,04,01,10,24,12.10
2019,04,01,10,25,12.10
2019,04,01,10,26,12.10
2019,04,01,10,27,12.20
2019,04,01,10,28,12.20
2019,04,01,10,29,12.30
2019,04,01,10,30,12.30
2019,04,01,10,31,12.40
2019,04,01,10,32,12.40
2019,04,01,10,33,12.40
2019,04,01,10,34,12.50
2019,04,01,10,35,12.50
2019,04,01,10,36,12.50
2019,04,01,10,37,12.50
2019,04,01,10,38,12.50
2019,04,01,10,39,12.50
2019,04,01,10,40,12.50
2019,04,01,10,41,12.50
2019,04,01,10,42,12.60
2019,04,01,10,43,12.70
2019,04,01,10,44,12.80
2019,04,01,10,45,12.80
2019,04,01,10,46,12.80
2019,04,01,10,47,12.90
2019,04,01,10,48,12.90
2019,04,01,10,49,12.90
2019,04,01,10,50,12.90
2019,04,01,10,51,12.90
2019,04,01,10,52,12.90
2019,04,01,10,53,12.90
2019,04,01,10,54,12.90
2019,04,01,10,55,12.90
2019,04,01,10,56,12.90
2019,04,01,10,57,13.00
2019,04,01,10,58,13.00
2019,04,01,10,59,13.00
2019,04,01,11,00,13.00
2019,04,01,11,01,13.00
2019,04,01,11,02,13.00
2019,04,01,11,03,13.00
2019,04,01,11,04,13.00
2019,04,01,11,05,13.00
2019,04,01,11,06,13.00
2019,04,01,11,07,13.00
2019,04,01,11,08,13.10
2019,04,01,11,09,13.10
2019,04,01,11,10,13.10
2019,04,01,11,11,13.20
2019,04,01,11,12,13.20
2019,04,01,11,13,13.30
2019,04,01,11,14,13.30
2019,04,01,11,15,13.30
2019,04,01,11,16,13.30
2019,04,01,11,17,13.30
2019,04,01,11,18,13.30
2019,04,01,11,19,13.30
2019,04,01,11,20,13.30
2019,04,01,11,21,13.30
2019,04,01,11,22,13.40
2019,04,01,11,23,13.40
2019,04,01,11,24,13.40
2019,04,01,11,25,13.40
2019,04,01,11,26,13.40
2019,04,01,11,27,13.50
2019,04,01,11,28,13.60
2019,04,01,11,29,13.60
2019,04,01,11,30,13.60
2019,04,01,11,31,13.60
2019,04,01,11,32,13.60
2019,04,01,11,33,13.50
2019,04,01,11,34,13.50
2019,04,01,11,35,13.50
2019,04,01,11,36,13.40
2019,04,01,11,37,13.40
2019,04,01,11,38,13.40
2019,04,01,11,39,13.30
2019,04,01,11,40,13.30
2019,04,01,11,41,13.30
2019,04,01,11,42,13.30
2019,04,01,11,43,13.30
2019,04,01,11,44,13.30
2019,04,01,11,45,13.30
2019,04,01,11,46,13.30
2019,04,01,11,47,13.30
2019,04,01,11,48,13.30
2019,04,01,11,49,13.40
2019,04,01,11,50,13.40
2019,04,01,11,51,13.50
2019,04,01,11,52,13.50
2019,04,01,11,53,13.50
2019,04,01,11,54,13.50
2019,04,01,11,55,13.50
2019,04,01,11,56,13.60
2019,04,01,11,57,13.60
2019,04,01,11,58,13.60
2019,04,01,11,59,13.60
2019,04,01,12,00,13.60
2019,04,01,12,01,13.60
2019,04,01,12,02,13.50
2019,04,01,12,03,13.50
2019,04,01,12,04,13.50
2019,04,01,12,05,13.50
2019,04,01,12,06,13.40
2019,04,01,12,07,13.40
2019,04,01,12,08,13.40
2019,04,01,12,09,13.50
2019,04,01,12,10,13.50
2019,04,01,12,11,13.40
2019,04,01,12,12,13.40
2019,04,01,12,13,13.40
2019,04,01,12,14,13.50
2019,04,01,12,15,13.50
2019,04,01,12,16,13.50
2019,04,01,12,17,13.60
2019,04,01,12,18,13.60
2019,04,01,12,19,13.70
2019,04,01,12,20,13.70
2019,04,01,12,21,13.60
2019,04,01,12,22,13.60
2019,04,01,12,23,13.50
2019,04,01,12,24,13.50
2019,04,01,12,25,13.50
2019,04,01,12,26,13.50
2019,04,01,12,27,13.50
2019,04,01,12,28,13.60
2019,04,01,12,29,13.60
2019,04,01,12,30,13.70
2019,04,01,12,31,13.70
2019,04,01,12,32,13.70
2019,04,01,12,33,13.70
2019,04,01,12,34,13.80
2019,04,01,12,35,13.80
2019,04,01,12,36,13.80
2019,04,01,12,37,13.80
2019,04,01,12,38,13.80
2019,04,01,12,39,13.80
2019,04,01,12,40,13.90
2019,04,01,12,41,13.90
2019,04,01,12,42,13.90
2019,04,01,12,43,14.00
2019,04,01,12,44,14.00
2019,04,01,12,45,14.00
2019,04,01,12,46,14.10
2019,04,01,12,47,14.10
2019,04,01,12,48,14.20
2019,04,01,12,49,14.20
2019,04,01,12,50,14.20
2019,04,01,12,51,14.30
2019,04,01,12,52,14.30
2019,04,01,12,53,14.30
2019,04,01,12,54,14.30
2019,04,01,12,55,14.40
2019,04,01,12,56,14.40
2019,04,01,12,57,14.40
2019,04,01,12,58,14.40
2019,04,01,12,59,14.50
2019,04,01,13,00,14.50
2019,04,01,13,01,14.50
2019,04,01,13,02,14.50
2019,04,01,13,03,14.60
2019,04,01,13,04,14.60
2019,04,01,13,05,14.60
2019,04,01,13,06,14.70
2019,04,01,13,07,14.70
2019,04,01,13,08,14.70
2019,04,01,13,09,14.70
2019,04,01,13,10,14.70
2019,04,01,13,11,14.80
2019,04,01,13,12,14.80
2019,04,01,13,13,14.80
2019,04,01,13,14,14.70
2019,04,01,13,15,14.70
2019,04,01,13,16,14.70
2019,04,01,13,17,14.80
2019,04,01,13,18,14.80
2019,04,01,13,19,14.80
2019,04,01,13,20,14.80
2019,04,01,13,21,14.80
2019,04,01,13,22,14.70
2019,04,01,13,23,14.70
2019,04,01,13,24,14.70
2019,04,01,13,25,14.70
2019,04,01,13,26,14.70
2019,04,01,13,27,14.60
2019,04,01,13,28,14.60
2019,04,01,13,29,14.70
2019,04,01,13,30,14.70
2019,04,01,13,31,14.70
2019,04,01,13,32,14.70
2019,04,01,13,33,14.60
2019,04,01,13,34,14.60
2019,04,01,13,35,14.50
2019,04,01,13,36,14.50
2019,04,01,13,37,14.50
2019,04,01,13,38,14.50
2019,04,01,13,39,14.50
2019,04,01,13,40,14.50
2019,04,01,13,41,14.50
2019,04,01,13,42,14.50
2019,04,01,13,43,14.50
2019,04,01,13,44,14.50
2019,04,01,13,45,14.60
2019,04,01,13,46,14.60
2019,04,01,13,47,14.60
2019,04,01,13,48,14.70
2019,04,01,13,49,14.70
2019,04,01,13,50,14.70
2019,04,01,13,51,14.80
2019,04,01,13,52,14.80
2019,04,01,13,53,14.80
2019,04,01,13,54,14.80
2019,04,01,13,55,14.80
2019,04,01,13,56,14.80
2019,04,01,13,57,14.80
2019,04,01,13,58,14.90
2019,04,01,13,59,15.00
2019,04,01,14,00,15.00
2019,04,01,14,01,15.10
2019,04,01,14,02,15.10
2019,04,01,14,03,15.10
2019,04,01,14,04,15.20
2019,04,01,14,05,15.30
2019,04,01,14,06,15.30
2019,04,01,14,07,15.30
2019,04,01,14,08,15.30
2019,04,01,14,09,15.30
2019,04,01,14,10,15.30
2019,04,01,14,11,15.30
2019,04,01,14,12,15.40
2019,04,01,14,13,15.40
2019,04,01,14,14,15.40
2019,04,01,14,15,15.40
2019,04,01,14,16,15.40
2019,04,01,14,17,15.50
2019,04,01,14,18,15.40
2019,04,01,14,19,15.50
2019,04,01,14,20,15.50
2019,04,01,14,21,15.50
2019,04,01,14,22,15.60
2019,04,01,14,23,15.50
2019,04,01,14,24,15.50
2019,04,01,14,25,15.40
2019,04,01,14,26,15.40
2019,04,01,14,27,15.40
2019,04,01,14,28,15.50
2019,04,01,14,29,15.50
2019,04,01,14,30,15.50
2019,04,01,14,31,15.50
2019,04,01,14,32,15.40
2019,04,01,14,33,15.30
2019,04,01,14,34,15.30
2019,04,01,14,35,15.30
2019,04,01,14,36,15.30
2019,04,01,14,37,15.40
2019,04,01,14,38,15.40
2019,04,01,14,39,15.40
2019,04,01,14,40,15.50
2019,04,01,14,41,15.50
2019,04,01,14,42,15.50
2019,04,01,14,43,15.50
2019,04,01,14,44,15.60
2019,04,01,14,45,15.60
2019,04,01,14,46,15.70
2019,04,01,14,47,15.70
2019,04,01,14,48,15.80
2019,04,01,14,49,15.80
2019,04,01,14,50,15.80
2019,04,01,14,51,15.80
2019,04,01,14,52,15.80
2019,04,01,14,53,15.80
2019,04,01,14,54,15.80
2019,04,01,14,55,15.80
2019,04,01,14,56,15.80
2019,04,01,14,57,15.90
2019,04,01,14,58,15.90
2019,04,01,14,59,15.80
2019,04,01,15,00,15.80
2019,04,01,15,01,15.80
2019,04,01,15,02,15.80
2019,04,01,15,03,15.80
2019,04,01,15,04,15.80
2019,04,01,15,05,15.80
2019,04,01,15,06,15.90
2019,04,01,15,07,16.00
2019,04,01,15,08,16.10
2019,04,01,15,09,16.10
2019,04,01,15,10,16.10
2019,04,01,15,11,16.10
2019,04,01,15,12,16.10
2019,04,01,15,13,16.10
2019,04,01,15,14,16.20
2019,04,01,15,15,16.20
2019,04,01,15,16,16.20
2019,04,01,15,17,16.20
2019,04,01,15,18,16.20
2019,04,01,15,19,16.20
2019,04,01,15,20,16.20
2019,04,01,15,21,16.20
2019,04,01,15,22,16.20
2019,04,01,15,23,16.20
2019,04,01,15,24,16.20
2019,04,01,15,25,16.20
2019,04,01,15,26,16.20
2019,04,01,15,27,16.20
2019,04,01,15,28,16.20
2019,04,01,15,29,16.20
2019,04,01,15,30,16.20
2019,04,01,15,31,16.20
2019,04,01,15,32,16.30
2019,04,01,15,33,16.30
2019,04,01,15,34,16.30
2019,04,01,15,35,16.30
2019,04,01,15,36,16.30
2019,04,01,15,37,16.30
2019,04,01,15,38,16.30
2019,04,01,15,39,16.30
2019,04,01,15,40,16.40
2019,04,01,15,41,16.40
2019,04,01,15,42,16.40
2019,04,01,15,43,16.40
2019,04,01,15,44,16.40
2019,04,01,15,45,16.40
2019,04,01,15,46,16.40
2019,04,01,15,47,16.40
2019,04,01,15,48,16.50
2019,04,01,15,49,16.60
2019,04,01,15,50,16.60
2019,04,01,15,51,16.60
2019,04,01,15,52,16.60
2019,04,01,15,53,16.70
2019,04,01,15,54,16.70
2019,04,01,15,55,16.70
2019,04,01,15,56,16.70
2019,04,01,15,57,16.70
2019,04,01,15,58,16.70
2019,04,01,15,59,16.70
2019,04,01,16,00,16.70
2019,04,01,16,01,16.70
2019,04,01,16,02,16.70
2019,04,01,16,03,16.70
2019,04,01,16,04,16.70
2019,04,01,16,05,16.70
2019,04,01,16,06,16.70
2019,04,01,16,07,16.70
2019,04,01,16,08,16.70
2019,04,01,16,09,16.70
2019,04,01,16,10,16.80
2019,04,01,16,11,16.80
2019,04,01,16,12,16.70
2019,04,01,16,13,16.70
2019,04,01,16,14,16.70
2019,04,01,16,15,16.70
2019,04,01,16,16,16.70
2019,04,01,16,17,16.80
2019,04,01,16,18,16.80
2019,04,01,16,19,16.80
2019,04,01,16,20,16.90
2019,04,01,16,21,16.90
2019,04,01,16,22,16.90
2019,04,01,16,23,16.90
2019,04,01,16,24,16.90
2019,04,01,16,25,16.90
2019,04,01,16,26,16.90
2019,04,01,16,27,16.90
2019,04,01,16,28,16.90
2019,04,01,16,29,16.90
2019,04,01,16,30,16.90
2019,04,01,16,31,16.90
2019,04,01,16,32,16.90
2019,04,01,16,33,16.90
2019,04,01,16,34,16.90
2019,04,01,16,35,16.90
2019,04,01,16,36,16.90
2019,04,01,16,37,17.00
2019,04,01,16,38,17.00
2019,04,01,16,39,17.00
2019,04,01,16,40,17.00
2019,04,01,16,41,17.00
2019,04,01,16,42,17.00
2019,04,01,16,43,17.00
2019,04,01,16,44,17.00
2019,04,01,16,45,17.00
2019,04,01,16,46,17.00
2019,04,01,16,47,17.00
2019,04,01,16,48,17.00
2019,04,01,16,49,17.00
2019,04,01,16,50,17.00
2019,04,01,16,51,17.00
2019,04,01,16,52,17.00
2019,04,01,16,53,17.00
2019,04,01,16,54,17.00
2019,04,01,16,55,17.00
2019,04,01,16,56,17.00
2019,04,01,16,57,17.10
2019,04,01,16,58,17.10
2019,04,01,16,59,17.10
2019,04,01,17,00,17.10
2019,04,01,17,01,17.10
2019,04,01,17,02,17.10
2019,04,01,17,03,17.10
2019,04,01,17,04,17.10
2019,04,01,17,05,17.00
2019,04,01,17,06,17.00
2019,04,01,17,07,17.00
2019,04,01,17,08,17.00
2019,04,01,17,09,17.00
2019,04,01,17,10,17.10
2019,04,01,17,11,17.10
2019,04,01,17,12,17.10
2019,04,01,17,13,17.00
2019,04,01,17,14,17.00
2019,04,01,17,15,17.00
2019,04,01,17,16,17.00
2019,04,01,17,17,16.90
2019,04,01,17,18,16.90
2019,04,01,17,19,16.90
2019,04,01,17,20,16.80
2019,04,01,17,21,16.80
2019,04,01,17,22,16.70
2019,04,01,17,23,16.70
2019,04,01,17,24,16.70
2019,04,01,17,25,16.70
2019,04,01,17,26,16.70
2019,04,01,17,27,16.70
2019,04,01,17,28,16.70
2019,04,01,17,29,16.70
2019,04,01,17,30,16.60
2019,04,01,17,31,16.60
2019,04,01,17,32,16.60
2019,04,01,17,33,16.60
2019,04,01,17,34,16.60
2019,04,01,17,35,16.60
2019,04,01,17,36,16.50
2019,04,01,17,37,16.40
2019,04,01,17,38,16.40
2019,04,01,17,39,16.40
2019,04,01,17,40,16.40
2019,04,01,17,41,16.40